Date String (YYYY-MM-DD hh:mm:ss) UTC,Instrument flags,Ambient pressure (hPa),Sample flow (lpm),Bypass flow (lpm),Sample temperature (°C),Ambient temperature (°C),ASC tube jacket temperature (°C),LED temperature (°C),Box temperature (°C),Sample RH (%),Span deviation,Mass concentration (μg/m³),Mass concentration (μg/m³),Mass concentration (μg/m³)
DateTimeUTC,F1_M11,P_M11,Q1_M11,Q2_M11,T1_M11,T2_M11,T3_M11,T4_M11,T5_M11,U1_M11,ZSPAN_M11,X2_M11,X0_M11,X1_M11
2022-01-19 22:00:00,,0831.4,5.00,0.00,22.0,22.0,00.0,31.1,23.7,10.6,0000.0,0002.37,0003.00,0002.23
2022-01-19 22:01:00,,0831.4,4.99,0.00,22.2,22.8,00.0,31.2,24.0,10.5,0000.0,0002.33,0002.95,0002.20
2022-01-19 22:02:00,,0831.4,5.01,0.00,22.3,23.1,00.0,31.2,24.2,10.4,0000.0,0002.27,0002.86,0002.15
2022-01-19 22:03:00,,0831.3,5.01,0.00,22.3,22.9,00.0,31.2,24.2,10.3,0000.0,0002.23,0002.83,0002.11
2022-01-19 22:04:00,,0831.4,5.00,0.00,22.3,22.6,00.0,31.2,24.1,10.3,0000.0,0002.22,0002.81,0002.10
2022-01-19 22:05:00,,0831.4,4.99,0.00,22.3,22.3,00.0,31.2,24.0,10.3,0000.0,0002.16,0002.68,0002.08
2022-01-19 22:06:00,,0831.4,5.02,0.00,22.2,22.1,00.0,31.2,23.9,10.3,0000.0,0002.12,0002.61,0002.05
2022-01-19 22:07:00,,0831.4,4.99,0.00,22.2,21.9,00.0,31.2,23.8,10.4,0000.0,0002.11,0002.57,0002.04
2022-01-19 22:08:00,,0831.4,4.99,0.00,22.1,21.8,00.0,31.2,23.7,10.4,0000.0,0002.12,0002.61,0002.05
2022-01-19 22:09:00,,0831.4,4.99,0.00,22.1,21.7,00.0,31.2,23.6,10.4,0000.0,0002.17,0002.66,0002.08
2022-01-19 22:10:00,,0831.3,5.01,0.00,22.0,21.6,00.0,31.2,23.6,10.5,0000.0,0002.19,0002.69,0002.10
2022-01-19 22:11:00,,0831.3,4.99,0.00,22.0,21.4,00.0,31.1,23.5,10.5,0000.0,0002.20,0002.68,0002.13
2022-01-19 22:12:00,,0831.4,5.00,0.00,21.9,21.5,00.0,31.1,23.5,10.5,0000.0,0002.24,0002.73,0002.16
2022-01-19 22:13:00,,0831.4,4.99,0.00,22.0,22.2,00.0,31.1,23.8,10.5,0000.0,0002.26,0002.77,0002.18
2022-01-19 22:14:00,,0831.4,5.00,0.00,22.2,23.0,00.0,31.2,24.1,10.4,0000.0,0002.31,0002.82,0002.21
2022-01-19 22:15:00,,0831.4,5.00,0.00,22.3,23.1,00.0,31.2,24.3,10.3,0000.0,0002.33,0002.86,0002.22
2022-01-19 22:16:00,,0831.4,5.01,0.00,22.4,22.8,00.0,31.2,24.2,10.3,0000.0,0002.36,0002.94,0002.23
2022-01-19 22:17:00,,0831.4,4.99,0.00,22.3,22.6,00.0,31.2,24.1,10.3,0000.0,0002.36,0002.96,0002.23
2022-01-19 22:18:00,,0831.4,4.99,0.00,22.3,22.3,00.0,31.2,24.0,10.3,0000.0,0002.40,0003.08,0002.23
2022-01-19 22:19:00,,0831.4,5.02,0.00,22.2,22.1,00.0,31.2,23.9,10.3,0000.0,0002.42,0003.15,0002.23
2022-01-19 22:20:00,,0831.4,5.00,0.00,22.2,21.9,00.0,31.2,23.8,10.3,0000.0,0002.39,0003.11,0002.22
2022-01-19 22:21:00,,0831.4,4.99,0.00,22.2,21.8,00.0,31.2,23.8,10.4,0000.0,0002.39,0003.15,0002.21
2022-01-19 22:22:00,,0831.4,5.01,0.00,22.1,21.7,00.0,31.2,23.7,10.4,0000.0,0002.39,0003.19,0002.20
2022-01-19 22:23:00,,0831.4,4.99,0.00,22.1,21.6,00.0,31.2,23.6,10.4,0000.0,0002.39,0003.20,0002.19
2022-01-19 22:24:00,,0831.4,5.00,0.00,22.0,21.5,00.0,31.1,23.5,10.4,0000.0,0002.39,0003.21,0002.19
2022-01-19 22:25:00,,0831.3,5.00,0.00,22.0,21.7,00.0,31.1,23.6,10.5,0000.0,0002.38,0003.22,0002.18
2022-01-19 22:26:00,,0831.4,5.00,0.00,22.1,22.4,00.0,31.2,23.9,10.4,0000.0,0002.39,0003.24,0002.18
2022-01-19 22:27:00,,0831.4,4.99,0.00,22.3,23.1,00.0,31.2,24.2,10.3,0000.0,0002.39,0003.26,0002.18
2022-01-19 22:28:00,,0831.4,5.01,0.00,22.4,23.0,00.0,31.2,24.3,10.2,0000.0,0002.40,0003.26,0002.19
2022-01-19 22:29:00,,0831.4,5.00,0.00,22.4,22.7,00.0,31.2,24.2,10.2,0000.0,0002.39,0003.20,0002.19
2022-01-19 22:30:00,,0831.4,5.01,0.00,22.3,22.5,00.0,31.2,24.1,10.3,0000.0,0002.39,0003.17,0002.20
2022-01-19 22:31:00,,0831.4,5.01,0.00,22.3,22.3,00.0,31.2,24.0,10.3,0000.0,0002.40,0003.17,0002.20
2022-01-19 22:32:00,,0831.4,4.98,0.00,22.3,22.1,00.0,31.2,23.9,10.3,0000.0,0002.38,0003.13,0002.20
2022-01-19 22:33:00,,0831.4,5.00,0.00,22.2,21.9,00.0,31.2,23.9,10.3,0000.0,0002.39,0003.16,0002.21
2022-01-19 22:34:00,,0831.4,5.02,0.00,22.2,21.8,00.0,31.2,23.8,10.4,0000.0,0002.39,0003.14,0002.21
2022-01-19 22:35:00,,0831.4,4.99,0.00,22.1,21.7,00.0,31.2,23.7,10.4,0000.0,0002.39,0003.13,0002.21
2022-01-19 22:36:00,,0831.4,5.01,0.00,22.1,21.6,00.0,31.2,23.6,10.4,0000.0,0002.37,0003.07,0002.20
2022-01-19 22:37:00,,0831.4,4.99,0.00,22.0,21.4,00.0,31.2,23.5,10.4,0000.0,0002.35,0003.02,0002.20
2022-01-19 22:38:00,,0831.5,5.01,0.00,21.9,21.3,00.0,31.1,23.4,10.5,0000.0,0002.36,0003.04,0002.21
2022-01-19 22:39:00,,0831.5,4.99,0.00,21.9,21.6,00.0,31.1,23.5,10.5,0000.0,0002.41,0003.21,0002.21
2022-01-19 22:40:00,,0831.5,5.01,0.00,22.1,22.4,00.0,31.1,23.8,10.4,0000.0,0002.42,0003.27,0002.20
2022-01-19 22:41:00,,0831.6,5.00,0.00,22.2,23.1,00.0,31.2,24.1,10.3,0000.0,0002.39,0003.24,0002.19
2022-01-19 22:42:00,,0831.6,5.01,0.00,22.3,23.0,00.0,31.2,24.2,10.2,0000.0,0002.38,0003.22,0002.17
2022-01-19 22:43:00,,0831.6,4.99,0.00,22.3,22.7,00.0,31.2,24.1,10.2,0000.0,0002.41,0003.29,0002.18
2022-01-19 22:44:00,,0831.6,5.01,0.00,22.3,22.4,00.0,31.2,24.0,10.3,0000.0,0002.42,0003.25,0002.18
2022-01-19 22:45:00,,0831.6,5.00,0.00,22.2,22.1,00.0,31.2,23.9,10.3,0000.0,0002.45,0003.31,0002.20
2022-01-19 22:46:00,,0831.6,4.99,0.00,22.2,21.9,00.0,31.2,23.8,10.3,0000.0,0002.46,0003.34,0002.21
2022-01-19 22:47:00,,0831.6,5.01,0.00,22.1,21.8,00.0,31.2,23.7,10.4,0000.0,0002.50,0003.44,0002.23
2022-01-19 22:48:00,,0831.6,4.99,0.00,22.1,21.7,00.0,31.2,23.7,10.4,0000.0,0002.50,0003.46,0002.21
2022-01-19 22:49:00,,0831.6,5.00,0.00,22.1,21.6,00.0,31.1,23.6,10.4,0000.0,0002.46,0003.38,0002.20
2022-01-19 22:50:00,,0831.6,5.01,0.00,22.0,21.5,00.0,31.1,23.6,10.5,0000.0,0002.40,0003.19,0002.19
2022-01-19 22:51:00,,0831.7,4.98,0.00,22.0,21.4,00.0,31.1,23.6,10.5,0000.0,0002.42,0003.11,0002.24
2022-01-19 22:52:00,,0831.7,4.99,0.00,21.9,21.3,00.0,31.1,23.5,10.5,0000.0,0002.43,0003.14,0002.25
2022-01-19 22:53:00,,0831.7,5.02,0.00,21.9,21.4,00.0,31.1,23.5,10.5,0000.0,0002.45,0003.18,0002.25
2022-01-19 22:54:00,,0831.7,5.00,0.00,22.0,22.1,00.0,31.1,23.8,10.5,0000.0,0002.45,0003.18,0002.24
2022-01-19 22:55:00,,0831.7,4.99,0.00,22.2,22.9,00.0,31.1,24.1,10.4,0000.0,0002.42,0003.11,0002.22
2022-01-19 22:56:00,,0831.6,5.00,0.00,22.3,23.1,00.0,31.2,24.2,10.3,0000.0,0002.40,0003.09,0002.21
2022-01-19 22:57:00,,0831.7,5.00,0.00,22.3,22.8,00.0,31.2,24.2,10.3,0000.0,0002.40,0003.12,0002.19
2022-01-19 22:58:00,,0831.7,5.00,0.00,22.3,22.6,00.0,31.2,24.0,10.3,0000.0,0002.35,0003.01,0002.16
2022-01-19 22:59:00,,0831.7,4.99,0.00,22.2,22.3,00.0,31.2,23.9,10.3,0000.0,0002.34,0002.98,0002.16
